Time,TemperatureF,DewpointF,PressureIn,WindDirection,WindDirectionDegrees,WindSpeedMPH,WindSpeedGustMPH,Humidity,HourlyPrecipIn,Conditions,Clouds,dailyrainin,SolarRadiationWatts/m^2,SoftwareType,DateUTC
2013-05-19 00:02:00,64.0,61.0,-100.00,NE,38,3.0,9.0,91,0.00,,,0.63,0.000000,,2013-05-19 05:02:00,
2013-05-19 00:32:00,59.0,56.0,-100.00,NNE,26,3.0,7.0,90,0.00,,,0.63,0.000000,,2013-05-19 05:32:00,
2013-05-19 00:42:00,59.0,56.0,-100.00,NNE,26,3.0,7.0,90,0.00,,,0.63,0.000000,,2013-05-19 05:42:00,
2013-05-19 00:52:00,59.0,56.0,-100.00,NNE,26,3.0,7.0,90,0.00,,,0.63,0.000000,,2013-05-19 05:52:00,
2013-05-19 01:02:00,59.0,56.0,-100.00,NNE,26,3.0,7.0,90,0.00,,,0.63,0.000000,,2013-05-19 06:02:00,
2013-05-19 01:32:00,54.0,51.0,-100.00,NE,49,5.0,9.0,91,0.00,,,0.59,0.000000,,2013-05-19 06:32:00,
2013-05-19 01:42:00,54.0,51.0,-100.00,NE,49,5.0,9.0,91,0.00,,,0.59,0.000000,,2013-05-19 06:42:00,
2013-05-19 01:52:00,54.0,51.0,-100.00,NE,49,5.0,9.0,91,0.00,,,0.59,0.000000,,2013-05-19 06:52:00,
2013-05-19 02:01:00,54.0,51.0,-100.00,NE,49,5.0,9.0,91,0.00,,,0.59,0.000000,,2013-05-19 07:01:00,
2013-05-19 02:32:00,52.0,50.0,-100.00,ENE,78,6.0,9.0,93,0.00,,,0.49,0.000000,,2013-05-19 07:32:00,
2013-05-19 02:42:00,52.0,50.0,-100.00,ENE,78,6.0,9.0,93,0.00,,,0.49,0.000000,,2013-05-19 07:42:00,
2013-05-19 02:52:00,52.0,50.0,-100.00,ENE,78,6.0,9.0,93,0.00,,,0.49,0.000000,,2013-05-19 07:52:00,
2013-05-19 03:01:00,52.0,50.0,-100.00,ENE,78,6.0,9.0,93,0.00,,,0.49,0.000000,,2013-05-19 08:01:00,
2013-05-19 03:32:00,53.0,51.0,-100.00,ENE,73,5.0,7.0,94,0.00,,,0.46,0.000000,,2013-05-19 08:32:00,
2013-05-19 03:42:00,53.0,51.0,-100.00,ENE,73,5.0,7.0,94,0.00,,,0.46,0.000000,,2013-05-19 08:42:00,
2013-05-19 03:52:00,53.0,51.0,-100.00,ENE,73,5.0,7.0,94,0.00,,,0.46,0.000000,,2013-05-19 08:52:00,
2013-05-19 04:02:00,53.0,51.0,-100.00,ENE,73,5.0,7.0,94,0.00,,,0.46,0.000000,,2013-05-19 09:02:00,
2013-05-19 04:33:00,53.0,52.0,-100.00,ENE,63,3.0,6.0,95,0.00,,,0.43,0.000000,,2013-05-19 09:33:00,
2013-05-19 04:43:00,53.0,52.0,-100.00,ENE,63,3.0,6.0,95,0.00,,,0.43,0.000000,,2013-05-19 09:43:00,
2013-05-19 04:53:00,53.0,52.0,-100.00,ENE,63,3.0,6.0,95,0.00,,,0.43,0.000000,,2013-05-19 09:53:00,
2013-05-19 05:02:00,53.0,52.0,-100.00,ENE,63,3.0,6.0,95,0.00,,,0.43,0.000000,,2013-05-19 10:02:00,
2013-05-19 05:33:00,55.0,53.0,-100.00,ENE,63,5.0,8.0,94,0.00,,,0.36,0.000000,,2013-05-19 10:33:00,
2013-05-19 05:42:00,55.0,53.0,-100.00,ENE,63,5.0,8.0,94,0.00,,,0.36,0.000000,,2013-05-19 10:42:00,
2013-05-19 05:53:00,55.0,53.0,-100.00,ENE,63,5.0,8.0,94,0.00,,,0.36,0.000000,,2013-05-19 10:53:00,
2013-05-19 06:02:00,55.0,53.0,-100.00,ENE,63,5.0,8.0,94,0.00,,,0.36,0.000000,,2013-05-19 11:02:00,
2013-05-19 06:32:00,56.0,55.0,-100.00,ENE,67,2.0,7.0,95,0.00,,,0.17,4.000000,,2013-05-19 11:32:00,
2013-05-19 06:42:00,56.0,55.0,-100.00,ENE,67,2.0,7.0,95,0.00,,,0.17,4.000000,,2013-05-19 11:42:00,
2013-05-19 06:52:00,56.0,55.0,-100.00,ENE,67,2.0,7.0,95,0.00,,,0.17,4.000000,,2013-05-19 11:52:00,
2013-05-19 07:01:00,56.0,55.0,-100.00,ENE,67,2.0,7.0,95,0.00,,,0.17,4.000000,,2013-05-19 12:01:00,
2013-05-19 07:32:00,58.0,56.0,-100.00,ENE,62,4.0,6.0,94,0.00,,,0.02,9.000000,,2013-05-19 12:32:00,
2013-05-19 07:42:00,58.0,56.0,-100.00,ENE,62,4.0,6.0,94,0.00,,,0.02,9.000000,,2013-05-19 12:42:00,
2013-05-19 07:52:00,58.0,56.0,-100.00,ENE,62,4.0,6.0,94,0.00,,,0.02,9.000000,,2013-05-19 12:52:00,
2013-05-19 08:01:00,58.0,56.0,-100.00,ENE,62,4.0,6.0,94,0.00,,,0.02,9.000000,,2013-05-19 13:01:00,
2013-05-19 09:32:00,64.0,62.0,-100.00,NNE,16,7.0,14.0,92,-99.99,,,0.07,48.000000,,2013-05-19 14:32:00,
2013-05-19 09:42:00,64.0,62.0,-100.00,NNE,16,7.0,14.0,92,-99.99,,,0.07,48.000000,,2013-05-19 14:42:00,
2013-05-19 09:52:00,64.0,62.0,-100.00,NNE,16,7.0,14.0,92,-99.99,,,0.07,48.000000,,2013-05-19 14:52:00,
2013-05-19 10:01:00,64.0,62.0,-100.00,NNE,16,7.0,14.0,92,-99.99,,,0.07,48.000000,,2013-05-19 15:01:00,
2013-05-19 10:33:00,67.0,63.0,-100.00,South,171,8.0,12.0,88,0.00,,,0.05,182.000000,,2013-05-19 15:33:00,
2013-05-19 10:43:00,67.0,63.0,-100.00,South,171,8.0,12.0,88,0.00,,,0.05,182.000000,,2013-05-19 15:43:00,
2013-05-19 10:53:00,67.0,63.0,-100.00,South,171,8.0,12.0,88,0.00,,,0.05,182.000000,,2013-05-19 15:53:00,
2013-05-19 11:03:00,67.0,63.0,-100.00,South,171,8.0,12.0,88,0.00,,,0.05,182.000000,,2013-05-19 16:03:00,
2013-05-19 11:33:00,67.0,63.0,-100.00,SE,130,3.0,10.0,88,0.00,,,0.05,91.000000,,2013-05-19 16:33:00,
2013-05-19 11:42:00,67.0,63.0,-100.00,SE,130,3.0,10.0,88,0.00,,,0.05,91.000000,,2013-05-19 16:42:00,
2013-05-19 11:52:00,67.0,63.0,-100.00,SE,130,3.0,10.0,88,0.00,,,0.05,91.000000,,2013-05-19 16:52:00,
2013-05-19 12:02:00,67.0,63.0,-100.00,SE,130,3.0,10.0,88,0.00,,,0.05,91.000000,,2013-05-19 17:02:00,
2013-05-19 12:32:00,72.0,64.0,-100.00,SE,145,8.0,15.0,76,0.00,,,0.05,430.000000,,2013-05-19 17:32:00,
2013-05-19 12:43:00,72.0,64.0,-100.00,SE,145,8.0,15.0,76,0.00,,,0.05,430.000000,,2013-05-19 17:43:00,
2013-05-19 12:52:00,72.0,64.0,-100.00,SE,145,8.0,15.0,76,0.00,,,0.05,430.000000,,2013-05-19 17:52:00,
2013-05-19 13:02:00,72.0,64.0,-100.00,SE,145,8.0,15.0,76,0.00,,,0.05,430.000000,,2013-05-19 18:02:00,
2013-05-19 13:32:00,75.0,62.0,-100.00,SSE,168,13.0,20.0,65,0.00,,,0.05,543.000000,,2013-05-19 18:32:00,
2013-05-19 13:43:00,75.0,62.0,-100.00,SSE,168,13.0,20.0,65,0.00,,,0.05,543.000000,,2013-05-19 18:43:00,
2013-05-19 13:53:00,75.0,62.0,-100.00,SSE,168,13.0,20.0,65,0.00,,,0.05,543.000000,,2013-05-19 18:53:00,
2013-05-19 14:01:00,75.0,62.0,-100.00,SSE,168,13.0,20.0,65,0.00,,,0.05,543.000000,,2013-05-19 19:01:00,
2013-05-19 14:32:00,78.0,63.0,-100.00,South,175,9.0,21.0,61,0.00,,,0.05,627.000000,,2013-05-19 19:32:00,
2013-05-19 14:42:00,78.0,63.0,-100.00,South,175,9.0,21.0,61,0.00,,,0.05,627.000000,,2013-05-19 19:42:00,
2013-05-19 14:52:00,78.0,63.0,-100.00,South,175,9.0,21.0,61,0.00,,,0.05,627.000000,,2013-05-19 19:52:00,
2013-05-19 15:02:00,78.0,63.0,-100.00,South,175,9.0,21.0,61,0.00,,,0.05,627.000000,,2013-05-19 20:02:00,
2013-05-19 15:32:00,78.0,64.0,-100.00,SE,141,6.0,14.0,62,0.00,,,0.05,486.000000,,2013-05-19 20:32:00,
2013-05-19 15:42:00,78.0,64.0,-100.00,SE,141,6.0,14.0,62,0.00,,,0.05,486.000000,,2013-05-19 20:42:00,
2013-05-19 15:52:00,78.0,64.0,-100.00,SE,141,6.0,14.0,62,0.00,,,0.05,486.000000,,2013-05-19 20:52:00,
2013-05-19 16:02:00,78.0,64.0,-100.00,SE,141,6.0,14.0,62,0.00,,,0.05,486.000000,,2013-05-19 21:02:00,
2013-05-19 16:32:00,80.0,65.0,-100.00,ESE,106,8.0,14.0,61,0.00,,,0.05,473.000000,,2013-05-19 21:32:00,
2013-05-19 16:43:00,80.0,65.0,-100.00,ESE,106,8.0,14.0,61,0.00,,,0.05,473.000000,,2013-05-19 21:43:00,
2013-05-19 16:53:00,80.0,65.0,-100.00,ESE,106,8.0,14.0,61,0.00,,,0.05,473.000000,,2013-05-19 21:53:00,
2013-05-19 17:03:00,80.0,65.0,-100.00,ESE,106,8.0,14.0,61,0.00,,,0.05,473.000000,,2013-05-19 22:03:00,
2013-05-19 17:33:00,76.0,69.0,-100.00,SE,137,8.0,32.0,78,0.02,,,0.07,188.000000,,2013-05-19 22:33:00,
2013-05-19 18:32:00,64.0,63.0,-100.00,North,11,7.0,42.0,97,0.52,,,0.59,11.000000,,2013-05-19 23:32:00,
2013-05-19 18:42:00,64.0,63.0,-100.00,North,11,7.0,42.0,97,0.52,,,0.59,11.000000,,2013-05-19 23:42:00,
2013-05-19 18:52:00,64.0,63.0,-100.00,North,11,7.0,42.0,97,0.52,,,0.59,11.000000,,2013-05-19 23:52:00,
2013-05-19 19:02:00,64.0,63.0,-100.00,North,11,7.0,42.0,97,0.52,,,0.59,11.000000,,2013-05-20 00:02:00,
2013-05-19 19:32:00,60.0,59.0,-100.00,ENE,57,9.0,24.0,95,0.33,,,-99.99,4.000000,,2013-05-20 00:32:00,
2013-05-19 19:42:00,60.0,59.0,-100.00,ENE,57,9.0,24.0,95,0.33,,,-99.99,4.000000,,2013-05-20 00:42:00,
2013-05-19 19:52:00,60.0,59.0,-100.00,ENE,57,9.0,24.0,95,0.33,,,-99.99,4.000000,,2013-05-20 00:52:00,
2013-05-19 20:01:00,60.0,59.0,-100.00,ENE,57,9.0,24.0,95,0.33,,,-99.99,4.000000,,2013-05-20 01:01:00,
2013-05-19 20:32:00,55.0,54.0,-100.00,NE,50,6.0,15.0,97,0.13,,,1.05,7.000000,,2013-05-20 01:32:00,
2013-05-19 20:42:00,55.0,54.0,-100.00,NE,50,6.0,15.0,97,0.13,,,1.05,7.000000,,2013-05-20 01:42:00,
2013-05-19 20:52:00,55.0,54.0,-100.00,NE,50,6.0,15.0,97,0.13,,,1.05,7.000000,,2013-05-20 01:52:00,
2013-05-19 21:02:00,55.0,54.0,-100.00,NE,50,6.0,15.0,97,0.13,,,1.05,7.000000,,2013-05-20 02:02:00,
2013-05-19 21:32:00,54.0,53.0,-100.00,NNE,23,3.0,10.0,98,0.00,,,1.05,2.000000,,2013-05-20 02:32:00,
2013-05-19 21:42:00,54.0,53.0,-100.00,NNE,23,3.0,10.0,98,0.00,,,1.05,2.000000,,2013-05-20 02:42:00,
2013-05-19 21:52:00,54.0,53.0,-100.00,NNE,23,3.0,10.0,98,0.00,,,1.05,2.000000,,2013-05-20 02:52:00,
2013-05-19 22:01:00,54.0,53.0,-100.00,NNE,23,3.0,10.0,98,0.00,,,1.05,2.000000,,2013-05-20 03:01:00,
2013-05-19 22:33:00,54.0,53.0,-100.00,ENE,62,6.0,12.0,97,0.00,,,1.05,0.000000,,2013-05-20 03:33:00,
2013-05-19 22:43:00,54.0,53.0,-100.00,ENE,62,6.0,12.0,97,0.00,,,1.05,0.000000,,2013-05-20 03:43:00,
2013-05-19 22:52:00,54.0,53.0,-100.00,ENE,62,6.0,12.0,97,0.00,,,1.05,0.000000,,2013-05-20 03:52:00,
2013-05-19 23:03:00,54.0,53.0,-100.00,ENE,62,6.0,12.0,97,0.00,,,1.05,0.000000,,2013-05-20 04:03:00,
2013-05-19 23:33:00,52.0,51.0,-100.00,ENE,58,9.0,15.0,95,0.00,,,1.05,0.000000,,2013-05-20 04:33:00,
2013-05-19 23:43:00,52.0,51.0,-100.00,ENE,58,9.0,15.0,95,0.00,,,1.05,0.000000,,2013-05-20 04:43:00,
2013-05-19 23:53:00,52.0,51.0,-100.00,ENE,58,9.0,15.0,95,0.00,,,1.05,0.000000,,2013-05-20 04:53:00,